Terug naar catalogus

FENGYUN 1C DEB

ActiefPO
NORAD 36675·DEBRIS·🇨🇳 China

Gelanceerd May 10, 1999 vanaf Taiyuan Satellite Launch Center

Loading…

Volgende Passages (komende 24 uur)

TLE

VerouderendSource: Space-Track

Epoch: Sep 5, 2026, 21:13 UTC

1 36675U 99025DYV 26248.88419883  .00002827  00000-0  78396-3 0  9998
2 36675  99.2299 271.9037 0026679  60.1183 300.2653 14.47241259710878

Volg FENGYUN 1C DEB in realtime met AllMySat

Download on the App Store